• Em Portugal
  • Lista de países
  • Para 7 dias
  • Temperatura da água
  • Mapas de satélite
  • Mapa do tempo
  • Widgets de tempo
  • user-avatar
    Iniciar Sessão

    Previsão horária em Golinsk

    Hoje, 21 Abril, Sábado

    Tempo Temperatura Precipitação Vento Pressão Humidade
    00:00 +14°C° 0 mm 2 m/s 723 mmHg 70%
    01:00 +14°C° 0 mm 2 m/s 723 mmHg 68%
    02:00 +14°C° 0 mm 2 m/s 723 mmHg 69%
    03:00 +14°C° 0 mm 2 m/s 722 mmHg 71%
    04:00 +13°C° 0 mm 2 m/s 722 mmHg 72%
    05:00 +14°C° 0 mm 2 m/s 722 mmHg 70%
    06:00 +15°C° 0 mm 2 m/s 723 mmHg 68%
    07:00 +16°C° 0 mm 2 m/s 723 mmHg 63%
    08:00 +18°C° 0 mm 2 m/s 723 mmHg 59%
    09:00 +20°C° 0 mm 2 m/s 723 mmHg 54%
    10:00 +23°C° 0 mm 2 m/s 723 mmHg 49%
    11:00 +22°C° 0 mm 3 m/s 723 mmHg 48%
    12:00 +24°C° 0 mm 3 m/s 723 mmHg 46%
    13:00 +25°C° 0 mm 3 m/s 723 mmHg 45%
    14:00 +25°C° 0 mm 3 m/s 722 mmHg 47%
    15:00 +24°C° 0 mm 3 m/s 722 mmHg 49%
    16:00 +23°C° 0 mm 4 m/s 722 mmHg 51%
    17:00 +21°C° 0,1 mm 3 m/s 722 mmHg 58%
    18:00 +18°C° 0,1 mm 3 m/s 722 mmHg 65%
    19:00 +16°C° 0,1 mm 2 m/s 722 mmHg 73%
    20:00 +15°C° 0 mm 2 m/s 722 mmHg 75%
    21:00 +14°C° 0 mm 2 m/s 722 mmHg 78%
    22:00 +12°C° 0 mm 2 m/s 722 mmHg 80%
    23:00 +12°C° 0 mm 2 m/s 722 mmHg 80%

    Amanhã, 22 Abril, Domingo

    Tempo Temperatura Precipitação Vento Pressão Humidade
    00:00 +11°C° 0 mm 1 m/s 722 mmHg 80%
    01:00 +10°C° 0 mm 1 m/s 722 mmHg 80%
    02:00 +10°C° 0 mm 1 m/s 722 mmHg 80%
    03:00 +9°C° 0 mm 1 m/s 722 mmHg 79%
    04:00 +9°C° 0 mm 1 m/s 722 mmHg 79%
    05:00 +10°C° 0 mm 1 m/s 722 mmHg 75%
    06:00 +11°C° 0 mm 1 m/s 722 mmHg 71%
    07:00 +12°C° 0 mm 1 m/s 722 mmHg 66%
    08:00 +14°C° 0 mm 1 m/s 722 mmHg 61%
    09:00 +16°C° 0 mm 1 m/s 722 mmHg 56%
    10:00 +19°C° 0 mm 1 m/s 722 mmHg 50%
    11:00 +20°C° 0 mm 1 m/s 722 mmHg 48%
    12:00 +21°C° 0 mm 1 m/s 722 mmHg 45%
    13:00 +22°C° 0 mm 1 m/s 722 mmHg 42%
    14:00 +22°C° 0 mm 1 m/s 721 mmHg 43%
    15:00 +20°C° 0 mm 2 m/s 721 mmHg 44%
    16:00 +20°C° 0 mm 2 m/s 721 mmHg 45%
    17:00 +18°C° 0 mm 2 m/s 720 mmHg 52%
    18:00 +16°C° 0 mm 1 m/s 720 mmHg 60%
    19:00 +14°C° 0 mm 1 m/s 720 mmHg 67%
    20:00 +14°C° 0 mm 1 m/s 720 mmHg 68%
    21:00 +13°C° 0 mm 1 m/s 720 mmHg 70%
    22:00 +12°C° 0 mm 2 m/s 720 mmHg 72%
    23:00 +12°C° 0 mm 2 m/s 720 mmHg 73%

    Depois de amanhã, 23 Abril, Segunda-feira

    Tempo Temperatura Precipitação Vento Pressão Humidade
    00:00 +12°C° 0 mm 2 m/s 719 mmHg 74%
    01:00 +12°C° 0 mm 2 m/s 719 mmHg 76%
    02:00 +12°C° 0,2 mm 2 m/s 719 mmHg 78%
    03:00 +12°C° 0,2 mm 2 m/s 719 mmHg 81%
    04:00 +12°C° 0,2 mm 2 m/s 719 mmHg 83%
    05:00 +13°C° 0 mm 2 m/s 719 mmHg 82%
    06:00 +15°C° 0 mm 2 m/s 719 mmHg 81%
    07:00 +16°C° 0 mm 2 m/s 719 mmHg 79%
    08:00 +17°C° 0 mm 3 m/s 719 mmHg 73%
    09:00 +19°C° 0 mm 4 m/s 719 mmHg 67%
    10:00 +21°C° 0 mm 4 m/s 719 mmHg 61%
    11:00 +21°C° 0,4 mm 5 m/s 719 mmHg 60%
    12:00 +21°C° 0,4 mm 5 m/s 719 mmHg 60%
    13:00 +21°C° 0,4 mm 6 m/s 719 mmHg 60%
    14:00 +20°C° 0,8 mm 5 m/s 718 mmHg 66%
    15:00 +17°C° 0,8 mm 5 m/s 718 mmHg 73%
    16:00 +17°C° 0,8 mm 4 m/s 718 mmHg 80%
    17:00 +15°C° 0,4 mm 4 m/s 718 mmHg 83%
    18:00 +14°C° 0,4 mm 4 m/s 718 mmHg 87%
    19:00 +13°C° 0,4 mm 3 m/s 719 mmHg 90%
    20:00 +13°C° 0 mm 3 m/s 719 mmHg 91%
    21:00 +12°C° 0 mm 3 m/s 719 mmHg 92%
    22:00 +11°C° 0 mm 3 m/s 720 mmHg 93%
    23:00 +11°C° 0 mm 3 m/s 720 mmHg 93%

    24 Abril, Terça-feira

    Tempo Temperatura Precipitação Vento Pressão Humidade
    00:00 +10°C° 0 mm 2 m/s 720 mmHg 93%
    01:00 +9°C° 0 mm 2 m/s 720 mmHg 94%
    02:00 +9°C° 0 mm 2 m/s 720 mmHg 93%
    03:00 +8°C° 0 mm 2 m/s 721 mmHg 93%
    04:00 +7°C° 0 mm 2 m/s 721 mmHg 93%
    05:00 +8°C° 0 mm 2 m/s 721 mmHg 89%
    06:00 +9°C° 0 mm 2 m/s 721 mmHg 85%
    07:00 +10°C° 0 mm 2 m/s 722 mmHg 81%
    08:00 +12°C° 0 mm 3 m/s 722 mmHg 74%
    09:00 +13°C° 0 mm 3 m/s 722 mmHg 67%
    10:00 +15°C° 0 mm 4 m/s 722 mmHg 61%
    11:00 +17°C° 0 mm 4 m/s 722 mmHg 57%
    12:00 +18°C° 0 mm 4 m/s 721 mmHg 54%
    13:00 +19°C° 0 mm 5 m/s 721 mmHg 51%
    14:00 +19°C° 0 mm 4 m/s 721 mmHg 51%
    15:00 +19°C° 0 mm 4 m/s 721 mmHg 52%
    16:00 +19°C° 0 mm 4 m/s 720 mmHg 52%
    17:00 +17°C° 0 mm 3 m/s 720 mmHg 58%
    18:00 +16°C° 0 mm 3 m/s 720 mmHg 65%
    19:00 +14°C° 0 mm 2 m/s 719 mmHg 71%
    20:00 +13°C° 0 mm 2 m/s 719 mmHg 74%
    21:00 +13°C° 0 mm 2 m/s 720 mmHg 77%
    22:00 +12°C° 0 mm 2 m/s 720 mmHg 79%
    23:00 +11°C° 0 mm 1 m/s 720 mmHg 81%

    25 Abril, Quarta-feira

    Tempo Temperatura Precipitação Vento Pressão Humidade
    00:00 +11°C° 0 mm 1 m/s 720 mmHg 83%
    01:00 +10°C° 0 mm 1 m/s 720 mmHg 85%
    02:00 +10°C° 0 mm 1 m/s 719 mmHg 86%
    03:00 +9°C° 0 mm 1 m/s 719 mmHg 87%
    04:00 +9°C° 0 mm 1 m/s 719 mmHg 88%
    05:00 +10°C° 0 mm 1 m/s 719 mmHg 84%
    06:00 +11°C° 0 mm 1 m/s 720 mmHg 79%
    07:00 +13°C° 0 mm 1 m/s 720 mmHg 75%
    08:00 +14°C° 0 mm 2 m/s 720 mmHg 69%
    09:00 +16°C° 0 mm 2 m/s 720 mmHg 64%
    10:00 +18°C° 0 mm 3 m/s 720 mmHg 58%
    11:00 +19°C° 0 mm 4 m/s 720 mmHg 55%
    12:00 +20°C° 0 mm 4 m/s 719 mmHg 52%
    13:00 +21°C° 0 mm 5 m/s 719 mmHg 49%
    14:00 +21°C° 0 mm 5 m/s 718 mmHg 49%
    15:00 +22°C° 0 mm 4 m/s 717 mmHg 49%
    16:00 +22°C° 0 mm 4 m/s 717 mmHg 48%
    17:00 +20°C° 0 mm 4 m/s 716 mmHg 54%
    18:00 +19°C° 0 mm 3 m/s 715 mmHg 61%
    19:00 +17°C° 0 mm 3 m/s 715 mmHg 67%
    20:00 +16°C° 0,3 mm 3 m/s 715 mmHg 71%
    21:00 +16°C° 0,3 mm 3 m/s 715 mmHg 76%
    22:00 +14°C° 0,3 mm 4 m/s 715 mmHg 81%
    23:00 +14°C° 0 mm 4 m/s 715 mmHg 83%

    26 Abril, Quinta-feira

    Tempo Temperatura Precipitação Vento Pressão Humidade
    00:00 +13°C° 0 mm 4 m/s 715 mmHg 85%
    01:00 +13°C° 0 mm 4 m/s 715 mmHg 87%
    02:00 +12°C° 0 mm 3 m/s 715 mmHg 89%
    03:00 +12°C° 0 mm 3 m/s 715 mmHg 91%
    04:00 +11°C° 0 mm 3 m/s 715 mmHg 93%
    05:00 +12°C° 0 mm 3 m/s 716 mmHg 90%
    06:00 +13°C° 0 mm 3 m/s 716 mmHg 87%
    07:00 +13°C° 0 mm 3 m/s 716 mmHg 85%
    08:00 +14°C° 0,1 mm 4 m/s 716 mmHg 80%
    09:00 +15°C° 0,1 mm 4 m/s 716 mmHg 75%
    10:00 +17°C° 0,1 mm 4 m/s 717 mmHg 70%
    11:00 +15°C° 0,6 mm 4 m/s 716 mmHg 72%
    12:00 +14°C° 0,6 mm 3 m/s 716 mmHg 75%
    13:00 +14°C° 0,6 mm 3 m/s 716 mmHg 78%
    14:00 +13°C° 0,7 mm 3 m/s 716 mmHg 81%
    15:00 +13°C° 0,7 mm 3 m/s 716 mmHg 83%
    16:00 +12°C° 0,7 mm 3 m/s 715 mmHg 86%
    17:00 +12°C° 0,7 mm 3 m/s 716 mmHg 86%
    18:00 +11°C° 0,7 mm 3 m/s 716 mmHg 85%
    19:00 +10°C° 0,7 mm 3 m/s 716 mmHg 85%
    20:00 +10°C° 0,3 mm 3 m/s 716 mmHg 84%
    21:00 +9°C° 0,3 mm 3 m/s 717 mmHg 83%
    22:00 +8°C° 0,3 mm 2 m/s 717 mmHg 83%
    23:00 +8°C° 0,1 mm 2 m/s 717 mmHg 83%
    Mostrar mais